Regional Weather Roundup
Issued by NWS Jackson, KY

Home | Current Version | Previous Version | Text Only | Print | Product List | Glossary Off
Versions: 1 2 3 4 5 6 7 8 9 10 11 12 13 14 15 16 17 18 19 20 21 22 23 24 25 26 27 28 29 30 31 32 33 34 35 36 37 38 39 40 41 42 43 44 45 46 47 48 49 50

000
ASUS43 KJKL 271110
RWRJKL

EAST KENTUCKY HOURLY WEATHER ROUNDUP
NATIONAL WEATHER SERVICE JACKSON KY
700 AM EDT FRI MAR 27 2015

NOTE: "FAIR" INDICATES FEW OR NO CLOUDS BELOW 12,000 FEET WITH
NO SIGNIFICANT WEATHER AND/OR OBSTRUCTIONS TO VISIBILITY.

* THESE REPORTS ARE NOT UNDER NWS QUALITY CONTROL AND MAY NOT
  REPORT WEATHER SUCH AS PRECIPITATION AND FOG.

KYZ079-080-083-085-087-088-110-112-115-119-120-271200
...EASTERN KENTUCKY...

CITY           SKY/WX    TMP DP  RH WIND       PRES   REMARKS
JACKSON        MOCLDY    36  33  89 N5        29.89R WCI  32
LONDON         CLOUDY    39  32  76 N8        29.90R WCI  33
SOMERSET*      MOCLDY    34  34 100 CALM      29.94R FOG
MONTICELLO*    CLEAR     36  33  88 N7        29.95S WCI  30
MIDDLESBORO*   CLOUDY    40  37  87 N8G16     29.88R WCI  35
HAZARD APT*    CLOUDY    37  37 100 CALM      29.89R
BLACK MTN*       N/A     30  30 100 VRB12       N/A  WCI  21
PIKEVILLE APT* CLOUDY    36  34  93 N9        29.86F WCI  29
BIG SANDY*     CLOUDY    37  33  87 N6        29.88F WCI  32
MOREHEAD APT*  CLOUDY    36  30  80 N8        29.94R WCI  29
$$

KYZ035-036-041-042-044-050-067-078-099-271200
...CENTRAL KENTUCKY...

CITY           SKY/WX    TMP DP  RH WIND       PRES   REMARKS
MT STERLING*   CLOUDY    32  32 100 N6        29.95R WCI  26
FLEMING/MASON* CLOUDY    34  27  75 N6        29.96R WCI  29
DANVILLE*      CLOUDY    34  32  93 N6        29.94R WCI  29
RICHMOND*      PTCLDY    32  32 100 NW5       29.92R WCI  27
LEXINGTON      MOCLDY    34  29  82 NE8       29.94R WCI  27
FRANKFORT      PTCLDY    34  30  85 N6        29.95R WCI  29
$$

KYZ091>093-OHZ055-061-077-WVZ005-015-034-035-042-271200
...SOUTHERN OHIO/WEST VIRGINIA...

CITY           SKY/WX    TMP DP  RH WIND       PRES   REMARKS
COVINGTON      PTCLDY    33  23  66 N8        29.97R WCI  26
COLUMBUS       MOCLDY    29  23  78 NW7       29.92S WCI  22
DAYTON         PTCLDY    29  24  82 NW7       29.96R WCI  22
WILMINGTON     CLEAR     29  22  75 N7        29.94R WCI  22
HUNTINGTON     CLEAR     34  26  72 N8        29.91R WCI  27
CHARLESTON     CLOUDY    37  32  82 NW10      29.88S WCI  30
PINEVILLE*     CLOUDY    39  37  93 MISG      29.89S
BECKLEY        CLOUDY    34  31  88 N13G20    29.80R WCI  25
BLUEFIELD      FLURRIES  36  31  82 N8        29.79R WCI  30
$$

VAZ002-007-008-TNZ017-027-036-066-071-271200
...SOUTHWEST VIRGINIA/EAST TENNESSEE...

CITY           SKY/WX    TMP DP  RH WIND       PRES   REMARKS
WISE*          CLOUDY    34  34 100 N12G17    29.81S FOG     WCI  25
JONESVILLE*    CLOUDY    39  37  93 CALM      29.86F
ABINGDON*      CLOUDY    40  37  90 CALM      29.77F
BRISTOL        CLOUDY    41  37  86 N5        29.81S
KNOXVILLE      LGT RAIN  42  38  85 N15       29.84R
OAK RIDGE      CLOUDY    43  39  86 CALM      29.87R
CROSSVILLE     CLOUDY    38  32  79 N8        29.86S WCI  32
NASHVILLE      CLEAR     35  33  92 NW7       29.98R WCI  29
$$

...KEY TO REMARKS...
VSB - VISIBILITY IN MILES
WCI - WIND CHILL INDEX
HX  - HEAT INDEX

$$



USA.gov is the U.S. government's official web portal to all federal, state and local government web resources and services.